{"data":{"norad_id":67515,"intl_designator":"2026-012Y","name":"STARLINK-36543","alt_names":[],"object_type":"PAYLOAD","status":"ACTIVE","operator":null,"country":"US","launch_date":"2026-01-18","launch_site_code":"AFETR","launch_vehicle":null,"mission":null,"orbit_class":"UNKNOWN","rcs_meters":null,"size_class":null,"mass_kg":null,"dimensions":null,"purposes":["comms"],"wikipedia_slug":null,"has_3d_model":false,"image_url":null,"decayed_at":null,"tle_current":{"epoch":"2026-05-24T14:45:22.627008Z","epoch_age_seconds":109121,"freshness":"FRESH","line1":"1 67515U 26012Y   26144.61484522  .00011452  00000+0  42493-3 0  9991","line2":"2 67515  43.0019 245.6165 0001461 266.7047  93.3637 15.27588052 19370","mean_motion":15.27588052,"eccentricity":0.0001461,"inclination_deg":43.0019,"raan_deg":245.6165,"arg_perigee_deg":266.7047,"mean_anomaly_deg":93.3637,"bstar":0.00042493,"rev_number":1937,"period_min":94.266251828474,"perigee_km":482.02256979478,"apogee_km":484.02740132696,"semimajor_km":6861.1619855609,"source":"CELESTRAK","updated_at":"2026-05-25T13:38:21.601711Z"}}}